RH
27 29 28 24 23 24 24 22 20 21 22 21 19 17 17 15 16 16 17 17 17 18 18 17 15 16 16 16 14 11 11 12 12 12 12 13 14 13 13 12 12 11 11 11 11 12 12 13 14 15 15 15 15 16 15 15 14 15 16 15 16 16 14 14 13 13 14 16 15 16 17 18 18 19 19 19 19 20 19 20 19 19 19 18 20 20 23 31
26 28 28 26 25 25 25 24 22 23 23 22 20 18 17 16 17 17 17 18 18 19 18 17 16 17 17 16 14 11 11 12 12 12 13 14 14 14 13 13 13 12 11 12 13 13 14 14 14 16 18 18 17 17 18 17 16 17 16 16 18 16 15 15 14 15 14 14 15 16 17 17 16 18 18 18 19 19 19 21 20 19 18 18 21 20 22 31
26 27 28 28 27 26 27 25 23 24 24 23 21 20 18 16 18 18 19 20 19 19 18 18 17 16 17 16 14 12 11 12 13 13 13 14 14 14 14 13 13 13 13 13 13 14 14 15 15 18 21 20 19 20 20 18 18 17 17 20 19 16 16 17 16 17 16 15 15 16 17 16 16 16 17 18 19 19 20 22 21 20 19 18 20 21 25 35
25 26 27 27 26 26 27 27 25 25 26 25 23 21 19 18 19 20 20 21 21 20 19 19 18 17 17 15 14 13 13 14 13 13 14 13 14 14 14 14 14 14 14 14 14 15 15 16 17 19 22 21 22 23 22 19 18 16 17 21 19 17 18 19 19 19 18 17 16 15 16 16 17 16 16 16 17 20 23 23 21 20 19 19 19 20 28 37
23 26 27 26 25 25 26 26 25 24 26 26 24 23 21 19 20 21 21 21 21 20 20 20 19 17 16 15 15 13 16 19 15 13 14 13 14 15 15 15 15 15 14 16 17 17 18 18 18 21 22 22 24 25 24 21 19 18 19 20 20 20 20 20 20 20 20 19 17 16 15 16 16 16 17 16 17 21 25 23 20 20 19 20 20 21 28 35
21 24 26 26 25 24 24 24 24 24 26 26 24 23 22 19 19 20 21 20 20 20 21 21 19 17 15 15 14 14 18 20 15 14 14 14 15 16 16 16 16 16 16 18 19 19 21 21 21 22 23 24 25 26 26 24 22 22 21 21 22 22 21 22 22 22 21 20 20 18 17 16 15 18 18 16 18 19 21 20 19 20 19 19 21 23 28 36
20 22 24 25 24 24 24 24 23 23 26 26 24 23 22 19 18 19 19 19 20 21 22 21 19 18 16 15 15 15 16 17 15 15 15 15 17 17 17 16 16 17 18 20 21 21 23 24 22 22 23 25 27 28 28 26 25 24 23 23 25 24 24 25 24 24 22 22 22 19 19 18 17 21 18 17 19 19 18 18 17 20 20 19 20 22 28 37
21 22 23 23 23 23 24 23 23 23 25 26 24 23 22 19 18 19 19 20 21 22 22 21 21 19 17 16 17 19 17 16 16 16 16 16 17 17 18 17 16 18 19 21 21 21 23 25 23 23 25 26 27 31 30 30 31 28 27 27 27 27 27 28 28 27 26 24 24 21 20 21 22 21 19 20 21 19 17 17 18 20 20 20 20 21 30 41
23 23 22 21 21 22 23 22 21 23 24 24 24 23 21 19 18 19 19 19 20 21 22 22 22 20 19 17 18 22 19 16 16 16 17 17 18 18 18 18 17 19 21 22 20 21 25 25 25 25 26 26 28 32 32 35 37 33 32 31 30 30 31 31 31 31 30 28 27 23 22 25 23 18 22 26 22 17 16 18 20 20 19 20 21 24 31 40
24 25 23 21 20 20 22 22 21 22 24 24 24 23 21 18 18 18 17 18 19 19 20 22 22 20 19 18 21 23 19 17 17 17 18 18 18 19 20 19 19 21 22 22 21 22 25 26 26 27 27 28 29 32 34 37 38 37 36 35 33 32 33 34 34 35 33 32 32 27 25 25 22 20 27 29 22 17 18 20 20 19 19 20 20 24 28 32
24 26 24 22 21 20 21 22 21 22 25 25 25 24 21 18 17 17 16 17 18 17 19 21 20 19 19 19 24 25 19 19 18 18 20 19 19 21 21 21 21 22 22 23 23 23 25 26 27 29 30 29 30 32 34 37 39 39 38 38 38 37 36 36 37 37 36 36 36 32 27 24 25 25 27 25 19 18 21 22 21 20 21 20 20 22 25 29
24 25 25 23 21 20 20 22 21 22 26 26 26 25 24 21 19 18 17 16 18 18 19 20 20 20 19 21 25 23 19 20 19 19 20 19 20 21 21 22 22 22 23 23 24 25 26 27 28 30 31 30 31 33 34 37 39 40 40 41 45 45 43 43 41 40 41 40 39 36 31 33 38 32 25 24 22 22 23 23 23 23 22 21 21 21 23 27
24 24 25 24 22 20 20 22 21 22 26 26 25 25 24 23 21 20 19 18 18 18 19 20 20 20 21 24 24 20 20 21 20 20 21 21 22 22 22 22 22 22 23 24 24 26 26 28 29 29 30 31 33 34 34 36 39 42 42 42 47 50 51 51 46 43 45 44 42 41 38 45 50 38 28 27 26 26 25 23 24 24 23 22 23 22 22 25
24 24 24 24 23 21 20 21 21 22 25 25 24 24 23 21 20 20 20 20 19 19 19 20 21 20 23 26 22 21 22 21 22 22 22 22 23 24 24 22 22 23 23 24 25 26 26 28 30 30 31 32 33 34 33 36 40 42 43 45 50 52 53 53 48 45 48 47 46 45 43 50 55 44 34 30 28 30 27 25 25 24 23 24 26 25 23 24
25 25 24 23 23 22 20 21 21 21 23 24 23 23 23 21 19 18 19 20 20 20 19 20 22 22 26 26 23 23 22 22 23 22 22 23 24 26 25 23 23 24 23 24 25 25 27 28 30 31 32 33 34 35 35 41 46 45 46 50 52 52 53 53 51 48 48 48 48 48 49 57 59 49 40 35 32 32 31 29 28 28 27 27 29 28 26 26
25 26 24 23 23 22 21 20 20 21 22 23 23 23 22 20 18 18 18 19 21 20 20 23 23 24 29 28 25 25 23 23 23 21 22 23 24 25 24 24 23 23 24 24 24 25 27 29 30 31 32 34 35 35 37 45 50 49 48 52 52 50 51 53 55 52 49 49 51 52 54 61 62 52 45 41 38 37 36 35 32 32 32 30 31 30 30 29
23 26 26 24 22 22 22 20 19 20 21 23 23 22 20 18 17 19 19 20 22 21 22 24 23 25 29 27 26 27 25 23 23 23 23 23 24 24 24 24 23 24 24 24 25 26 28 29 30 31 33 38 40 38 43 49 51 49 49 52 52 48 48 51 56 56 51 49 52 56 57 60 61 54 49 46 44 41 39 40 37 35 35 34 33 32 32 31
21 25 26 25 23 22 22 21 19 19 20 21 22 21 18 16 18 21 22 22 24 24 25 24 25 29 30 27 28 28 26 24 24 25 25 25 25 25 24 23 23 25 25 27 29 28 28 28 30 36 42 48 46 41 45 47 45 46 48 50 49 47 48 52 55 53 50 49 52 59 62 62 60 54 52 50 49 46 43 42 41 38 36 36 36 34 34 33
19 22 25 25 24 23 22 21 19 19 20 20 21 19 16 17 19 22 23 23 24 27 28 26 27 31 30 28 29 27 26 25 25 27 28 28 28 28 26 25 25 25 26 30 33 31 28 30 37 47 51 50 45 40 42 41 40 44 48 48 47 45 46 49 49 47 48 51 56 60 61 62 61 57 55 54 52 51 48 45 43 43 40 38 37 36 36 35
17 19 23 24 24 24 24 23 20 20 20 20 21 19 18 20 22 23 23 23 23 24 26 26 27 29 29 30 30 28 27 26 27 28 29 29 30 29 30 31 30 30 32 31 32 30 27 35 47 47 43 40 39 41 41 40 41 43 46 48 47 46 47 47 45 47 48 52 60 61 58 59 60 58 59 58 57 55 52 50 47 45 44 42 40 37 37 37
17 18 22 23 23 23 25 24 22 21 21 20 21 19 20 22 23 25 25 25 24 24 26 28 28 29 30 31 30 30 27 26 28 28 29 29 28 32 34 35 34 36 37 31 30 31 29 41 50 40 34 35 36 40 42 43 42 42 44 46 47 47 45 45 45 48 49 51 59 62 60 60 59 58 61 61 61 59 56 54 51 48 47 45 44 41 40 39
18 18 21 23 22 23 24 26 25 23 21 20 21 21 22 24 25 25 27 27 26 27 29 30 31 31 32 32 30 30 28 27 29 29 30 28 29 35 35 35 38 37 35 32 33 36 36 46 48 34 31 33 35 41 43 43 41 39 42 45 48 46 44 48 51 51 49 50 58 62 62 63 61 58 61 61 61 61 60 58 56 54 51 49 48 47 44 42
20 19 21 23 22 22 24 26 26 24 23 21 22 23 24 27 26 25 29 30 29 30 31 31 33 34 34 34 32 32 29 28 30 31 30 29 31 33 32 36 38 36 37 37 35 34 38 45 42 32 31 35 39 44 45 44 44 44 43 44 47 46 45 51 54 52 50 50 54 59 62 65 61 59 61 60 60 61 62 61 60 60 58 54 51 51 49 48
20 20 22 22 22 23 24 24 26 27 25 23 23 24 25 28 28 27 31 32 31 32 32 32 33 35 36 34 34 35 31 28 30 31 30 31 32 31 33 34 34 38 41 38 35 34 38 41 36 33 36 38 39 44 47 47 48 48 46 44 45 46 47 50 50 50 52 54 53 55 64 68 62 61 65 64 61 61 61 62 62 62 63 60 57 54 52 51
20 22 23 22 23 23 23 25 26 27 26 25 25 24 26 29 28 28 32 34 34 33 32 33 34 36 36 34 37 36 32 31 32 32 32 33 33 33 35 33 32 40 42 36 34 36 41 41 36 38 42 41 40 46 50 49 49 50 49 47 45 47 49 51 51 50 57 64 59 55 65 74 68 64 68 68 65 64 63 63 63 63 63 63 61 59 56 55
19 22 23 23 23 23 24 27 27 26 27 27 26 24 27 29 27 31 34 35 36 34 33 35 36 37 36 34 38 37 35 35 33 33 34 35 34 32 37 38 35 38 38 32 33 38 42 39 36 40 43 41 44 52 54 50 52 55 55 51 45 45 50 53 52 53 58 63 59 54 61 73 74 69 70 69 66 67 66 65 64 63 63 61 60 59 58 58
18 21 23 23 24 23 25 28 27 26 27 27 27 27 28 28 29 34 36 37 37 33 33 36 37 38 36 35 38 37 38 38 34 36 36 34 34 33 37 43 40 39 35 30 37 45 43 37 38 42 40 40 46 54 56 51 52 57 57 53 46 46 52 54 53 54 55 56 58 58 57 64 71 71 71 67 66 69 68 65 64 62 61 59 57 56 55 56
17 19 21 23 24 24 26 27 27 27 27 26 28 31 30 30 32 35 38 40 37 33 34 36 36 37 36 37 39 37 37 36 36 39 37 33 35 35 38 41 38 38 35 32 41 45 39 38 42 41 40 43 47 55 54 47 50 54 53 52 47 46 51 53 53 55 55 55 63 63 55 58 68 73 72 66 65 70 68 65 63 59 57 56 54 53 51 51
17 18 20 22 24 25 27 27 27 28 28 29 32 33 32 32 36 37 37 37 35 34 35 36 38 38 37 39 40 39 37 37 38 38 35 34 35 35 39 39 33 36 35 32 39 40 34 37 39 39 44 47 47 53 51 44 48 52 50 51 48 46 51 54 55 56 56 56 62 61 54 56 65 70 70 68 67 68 67 66 64 61 59 57 54 52 50 49
19 18 19 21 24 26 27 28 28 29 30 32 34 34 33 35 38 38 36 35 36 35 34 36 39 40 40 42 42 39 37 37 36 36 36 35 35 34 36 37 35 38 40 38 40 38 32 35 42 42 43 44 43 46 45 40 44 51 52 52 52 51 54 55 54 54 54 57 59 57 53 53 62 69 68 68 67 64 66 67 64 61 59 58 58 56 55 51
23 20 19 20 23 26 29 31 30 30 32 33 34 33 35 38 37 35 33 34 35 35 34 37 39 39 41 43 42 38 35 36 34 34 37 36 37 37 39 42 40 39 44 44 42 39 39 43 45 42 40 40 40 45 49 46 45 51 53 53 55 57 59 59 58 56 52 54 58 53 50 53 62 70 69 66 63 61 63 64 60 57 55 55 56 55 55 52
27 23 21 21 22 25 30 33 32 32 34 35 34 35 38 39 36 33 33 34 35 36 36 38 39 40 42 43 42 37 35 37 34 35 37 37 38 40 40 43 41 37 41 42 36 36 46 49 41 39 44 43 40 45 52 52 51 53 53 55 60 61 64 64 59 55 49 52 55 48 48 55 60 63 65 64 62 60 61 61 58 56 54 53 51 51 52 48
28 25 24 23 24 26 30 34 34 34 36 36 35 36 37 36 35 35 35 36 37 36 35 36 38 40 43 45 44 38 36 36 36 39 38 35 39 42 41 40 39 38 40 42 38 33 41 48 45 44 46 46 42 42 50 57 57 55 55 60 63 64 69 66 56 52 51 54 54 46 46 51 55 61 64 61 58 57 57 57 55 54 54 53 52 51 49 44
28 26 27 28 26 27 30 34 36 36 37 37 37 37 36 35 36 37 37 37 36 35 34 34 37 42 45 46 44 39 38 37 36 40 39 38 45 48 46 43 40 40 41 44 45 37 36 46 48 44 42 44 42 40 45 52 57 59 56 55 59 62 68 68 61 58 55 53 51 49 48 46 49 59 60 54 53 54 56 57 54 53 53 51 49 47 45 41
30 29 31 32 28 28 31 34 37 38 39 39 37 36 35 35 36 37 37 37 36 36 36 33 37 44 46 47 46 41 40 40 38 38 38 40 46 46 47 46 39 39 42 44 46 41 40 46 45 40 43 45 42 41 43 47 56 62 57 55 61 63 64 66 66 64 58 53 50 49 46 44 47 51 49 48 52 56 57 57 55 53 49 44 41 40 39 40
31 32 34 35 31 30 32 35 37 39 41 42 39 35 35 36 36 36 37 38 38 37 36 34 37 43 46 48 49 45 43 42 39 39 40 40 44 44 43 43 39 39 40 40 45 42 40 48 48 42 47 50 44 44 46 48 55 59 58 62 64 60 60 61 62 63 61 58 54 48 44 43 46 52 52 48 50 54 56 55 54 52 48 42 38 36 35 35
32 35 37 38 35 33 34 36 37 40 43 43 40 37 37 36 34 35 36 38 39 36 35 36 38 42 47 49 49 46 44 44 40 39 40 40 45 46 42 41 42 41 37 36 44 45 39 46 52 45 46 51 46 47 54 54 52 55 60 60 57 58 60 57 56 59 58 57 53 47 46 44 43 51 55 49 47 50 51 52 53 51 48 43 39 35 33 34
33 37 39 39 38 35 36 37 38 41 43 43 42 40 39 36 34 35 36 37 38 36 37 38 38 43 49 50 49 46 44 45 41 38 38 39 45 46 42 43 44 41 37 35 42 48 41 43 54 48 41 47 50 55 64 62 54 53 56 54 54 62 64 59 59 58 57 57 51 44 45 43 44 50 51 47 47 49 47 46 48 48 46 44 40 36 33 32
39 40 42 42 41 39 38 37 39 42 43 43 43 42 39 36 35 35 36 36 37 38 39 39 39 43 48 50 51 48 45 45 43 40 39 39 43 44 41 43 46 43 39 38 42 47 42 42 51 51 43 45 52 57 63 64 59 54 53 53 54 58 57 57 59 57 57 59 53 48 45 44 51 53 46 46 48 46 44 43 43 45 47 46 45 44 39 33
40 41 44 45 44 43 41 39 40 42 44 44 43 42 39 37 36 35 36 38 38 40 41 40 40 43 48 52 52 48 47 47 46 43 40 37 39 43 42 42 47 45 40 40 42 43 44 45 50 51 50 50 50 52 54 56 58 58 57 56 54 53 53 55 55 54 56 56 55 56 51 48 54 52 45 47 47 43 42 39 38 41 44 46 48 49 45 36
41 41 45 46 45 47 46 44 44 43 44 45 44 43 41 39 38 37 38 39 39 40 41 41 40 41 46 52 52 50 48 47 47 45 42 39 39 43 44 43 46 45 44 47 45 41 44 50 52 50 50 51 49 48 48 48 52 56 55 55 55 53 53 55 57 57 56 54 55 57 51 48 53 51 46 47 42 37 36 33 33 36 39 42 43 44 43 37
43 44 47 46 45 47 49 50 50 47 46 46 44 44 44 42 40 38 39 39 39 40 41 41 41 40 44 51 53 52 48 47 48 47 44 40 38 40 42 44 46 45 46 50 46 43 44 48 53 51 48 49 47 44 46 46 50 54 54 55 54 52 52 55 58 59 57 55 57 57 50 49 55 53 46 40 34 31 31 30 32 34 36 40 41 39 38 37
43 43 46 45 44 46 48 52 53 50 48 47 45 45 45 44 41 41 41 40 39 40 41 42 42 42 44 49 53 51 49 48 49 48 44 39 37 40 41 46 48 45 48 51 47 49 48 45 49 49 47 51 49 47 51 49 49 55 57 56 55 53 54 55 56 56 54 54 55 53 49 51 54 49 38 31 27 28 31 32 33 34 36 40 41 39 37 36
43 44 47 45 44 46 48 52 53 52 50 48 46 46 47 45 44 44 45 43 43 43 43 43 43 43 42 47 53 52 49 50 50 47 45 39 37 39 41 46 49 45 49 50 46 50 53 49 51 49 47 53 55 53 55 52 49 52 53 55 57 59 61 61 59 57 57 57 55 49 45 46 46 40 32 28 26 28 32 32 33 37 39 40 39 39 40 39
45 48 49 48 46 46 48 49 49 51 52 49 49 50 49 48 47 48 48 47 45 44 44 44 44 42 41 45 53 54 51 51 51 48 44 40 39 40 41 46 48 45 47 48 43 48 54 54 55 50 48 54 53 49 51 50 46 45 49 54 56 58 62 60 56 57 58 57 55 49 42 38 38 35 30 27 27 29 32 34 37 40 41 41 39 38 38 39
50 51 48 47 47 45 46 46 47 50 51 50 50 51 50 50 49 49 49 49 47 45 44 44 43 41 39 44 55 59 55 52 51 47 44 40 40 41 43 46 46 45 49 49 46 49 56 58 56 51 52 56 52 49 51 50 47 47 53 56 53 53 57 54 51 53 54 51 51 49 41 38 39 35 30 29 30 31 34 39 41 40 39 41 41 40 39 41
56 57 52 48 47 45 45 47 48 50 51 52 52 51 51 51 51 50 51 51 48 46 44 43 41 41 41 45 55 60 58 54 51 48 45 42 41 42 44 46 46 49 54 54 52 54 58 60 56 51 53 54 50 49 50 48 50 54 55 55 54 53 54 50 49 51 50 46 45 43 43 46 42 35 31 33 33 33 37 42 41 38 37 37 34 35 41 45
56 58 56 52 49 49 49 50 50 51 52 52 50 50 51 53 54 55 55 52 49 47 45 43 42 41 40 42 51 58 58 55 52 49 46 43 43 45 47 47 48 52 55 56 56 56 57 61 59 50 49 53 50 47 46 44 47 52 53 54 56 56 54 52 51 50 49 47 44 42 46 49 43 36 35 35 35 37 40 41 39 36 35 33 29 32 41 47
56 55 55 54 51 49 51 52 51 50 49 49 48 48 49 51 55 58 56 53 51 47 44 44 44 43 39 37 46 56 56 52 49 48 47 44 45 48 53 53 51 51 53 56 59 57 54 60 63 52 47 53 52 45 45 44 43 47 51 54 55 55 56 57 56 54 52 50 49 49 50 47 41 37 35 33 36 39 40 40 40 35 31 28 28 33 42 49
59 59 58 56 52 50 51 53 52 51 50 48 47 46 47 49 53 58 55 53 52 49 46 47 46 44 40 36 43 53 53 48 48 49 47 46 49 51 53 55 54 53 55 57 60 60 57 60 63 55 50 55 54 46 45 46 43 46 50 52 55 58 59 60 59 56 53 52 54 55 52 46 38 35 35 37 38 39 40 41 40 36 32 28 28 35 46 56
55 58 58 55 51 49 50 50 49 51 52 51 48 47 49 50 52 55 54 52 52 50 49 50 48 45 43 40 44 50 50 47 47 49 47 47 50 51 51 53 53 54 59 62 61 63 64 63 63 59 55 56 54 49 48 47 46 50 52 50 53 57 55 55 55 52 50 53 55 52 48 42 37 37 39 41 40 41 42 42 40 39 35 30 29 37 51 65
51 52 54 55 52 48 48 45 44 48 52 53 53 52 52 52 51 54 55 53 53 51 50 52 51 48 46 47 49 50 51 50 48 48 47 45 46 46 45 49 50 50 56 61 61 64 66 63 61 60 58 58 57 53 53 51 50 53 51 46 51 57 57 55 53 50 54 58 54 47 43 41 40 40 42 42 42 44 44 42 42 41 36 28 28 37 54 71